C/2022 L2 ( ATLAS )

Japanese version
Home page
Updated on May 21, 2024

---------------------------------------------------------------------

* Profile

Discovery Date June 10, 2022
Magnitude 18.4 mag
Discoverer Asteroid Terrestrial-Impact Last Alert System (ATLAS) search program

* Pictures

* Orbital Elements

Epoch 2024 Mar. 31.0 TT = JDT 2460400.5
T 2024 Mar. 12.27140 TT                                 Rudenko
q   2.6927020            (2000.0)            P               Q
z  -0.0005081      Peri.  199.92055     -0.86470498     -0.11292692
 +/-0.0000005      Node    39.24118     -0.28741035     +0.91035396
e   1.0013681      Incl.  129.31424     -0.41192304     -0.39812456
>From 2552 observations 2022 May 20-2024 Mar. 19, mean residual 0".6.

* Finding Charts

* Magnitudes Graph

        m1 = 10.0 + 5 log d + 5.0 log r

---------------------------------------------------------------------

The orbital elements are published on M.P.E.C. 2024-F34.
The charts are made with StellaNavigator Ver.10 (AstroArts).
The magnitudes graphs are made with Comet for Windows.

---------------------------------------------------------------------

Copyright(C) Seiichi Yoshida (comet@aerith.net). All rights reserved.